McConnell AFB, KS

8:13 PM CST on February 23, 2017 (GMT -0600)
McConnell Air Force Base

Weather History for KIAB - August, 2013

Change the Weather History Date:

Saturday, August 24, 2013

  Actual Average Record
Temperature  
Mean Temperature 82 °F -  
Max Temperature 92 °F 89 °F 107 °F (2011)
Min Temperature 71 °F 67 °F 55 °F (2015)
Cooling Degree Days 16    
Growing Degree Days 32 (Base 50)    
Moisture  
Dew Point 72 °F    
Average Humidity 75    
Maximum Humidity 100    
Minimum Humidity 44    
Precipitation  
Precipitation 0.00 in - - ()
Sea Level Pressure  
Sea Level Pressure 30.06 in    
Wind  
Wind Speed 10 mph (SE)    
Max Wind Speed 17 mph    
Max Gust Speed 17 mph    
Visibility 10 miles    
Events      
Averages and records for this station are not official NWS values.
T = Trace of Precipitation, MM = Missing Value Source: NWS Daily Summary

Daily Weather History Graph

Daily Weather History Graph

Search for Another Location

Airport or City:

Trip Planner

Search our weather history database for the weather conditions in past years. The results will help you decide how hot, cold, wet, or windy it might be!

Date:

Astronomy

Aug. 24, 2013 Rise Set
Actual Time 6:52 AM CDT 8:09 PM CDT
Civil Twilight 6:25 AM CDT 8:36 PM CDT
Nautical Twilight 5:52 AM CDT 9:08 PM CDT
Astronomical Twilight 5:18 AM CDT 9:42 PM CDT
Moon 10:10 PM CDT 10:48 AM CDT
Length of Visible Light 14h 10m
Length of Day
13h 16m
Waning Gibbous, 84% of the Moon is Illuminated
Aug 24
Waning Gibbous
Aug 28
Last Quarter
Sep 5
New
Sep 12
First Quarter
Sep 19
Full

Hourly Weather History & Observations

Time (CDT) Temp. Heat Index Dew Point Humidity Pressure Visibility Wind Dir Wind Speed Gust Speed Precip Events Conditions
12:58 AM 76.6 °F - 73.9 °F 91% 30.01 in 10.0 mi SE 9.2 mph - N/A   Clear
1:58 AM 75.6 °F - 73.9 °F 95% 30.02 in 10.0 mi SSE 6.9 mph - N/A   Scattered Clouds
2:58 AM 74.8 °F - 73.9 °F 97% 30.02 in 10.0 mi SE 6.9 mph - N/A   Mostly Cloudy
3:58 AM 73.4 °F - 73.4 °F 100% 30.03 in 10.0 mi SE 5.8 mph - N/A   Partly Cloudy
4:58 AM 72.7 °F - 72.7 °F 100% 30.04 in 10.0 mi SE 5.8 mph - N/A   Clear
5:58 AM 72.3 °F - 72.3 °F 100% 30.05 in 10.0 mi SE 6.9 mph - N/A   Clear
6:58 AM 71.6 °F - 71.6 °F 100% 30.06 in 10.0 mi SE 6.9 mph - N/A   Clear
7:58 AM 73.6 °F - 71.6 °F 93% 30.08 in 10.0 mi SE 9.2 mph - N/A   Clear
8:58 AM 77.4 °F - 72.5 °F 85% 30.08 in 10.0 mi SSE 13.8 mph - N/A   Clear
9:58 AM 81.0 °F 85.8 °F 73.2 °F 77% 30.09 in 10.0 mi SSE 12.7 mph - N/A   Clear
10:58 AM 84.4 °F 91.3 °F 73.6 °F 70% 30.10 in 10.0 mi SSE 12.7 mph - N/A   Clear
11:58 AM 88.0 °F 95.1 °F 72.7 °F 60% 30.10 in 10.0 mi SSE 10.4 mph 17.3 mph N/A   Clear
12:58 PM 89.4 °F 97.8 °F 73.4 °F 59% 30.07 in 10.0 mi SE 11.5 mph - N/A   Clear
1:58 PM 91.0 °F 97.6 °F 71.4 °F 52% 30.07 in 10.0 mi SSE 15.0 mph - N/A   Clear
2:58 PM 92.7 °F 96.7 °F 67.8 °F 44% 30.05 in 10.0 mi SE 17.3 mph - N/A   Clear
3:58 PM 92.7 °F 99.9 °F 71.8 °F 50% 30.03 in 10.0 mi SSE 13.8 mph - N/A   Clear
4:58 PM 92.1 °F 97.7 °F 70.0 °F 48% 30.03 in 10.0 mi SE 15.0 mph - N/A   Clear
5:58 PM 90.9 °F 96.7 °F 70.5 °F 51% 30.03 in 10.0 mi SE 17.3 mph - N/A   Clear
6:58 PM 88.9 °F 96.1 °F 72.5 °F 58% 30.03 in 10.0 mi ESE 12.7 mph - N/A   Clear
7:58 PM 86.0 °F 93.0 °F 72.9 °F 65% 30.04 in 10.0 mi ESE 10.4 mph - N/A   Clear
8:58 PM 83.1 °F 88.6 °F 72.3 °F 70% 30.06 in 10.0 mi ESE 10.4 mph - N/A   Clear
9:58 PM 81.0 °F 85.6 °F 72.9 °F 76% 30.08 in 10.0 mi ESE 10.4 mph - N/A   Clear
10:58 PM 79.3 °F - 72.9 °F 80% 30.10 in 10.0 mi SE 10.4 mph - N/A   Clear
11:58 PM 78.1 °F - 73.2 °F 85% 30.09 in 10.0 mi SE 9.2 mph - N/A   Clear